TimeEDT,TemperatureF,Dew PointF,Humidity,Sea Level PressureIn,VisibilityMPH,Wind Direction,Wind SpeedMPH,Gust SpeedMPH,PrecipitationIn,Events,Conditions,WindDirDegrees,DateUTC
12:51 AM,28.0,21.9,78,30.05,10.0,Calm,Calm,-,N/A,,Scattered Clouds,0,2013-03-23 04:51:00
1:51 AM,27.0,21.9,81,30.06,10.0,North,4.6,-,N/A,,Clear,360,2013-03-23 05:51:00
2:51 AM,25.0,19.9,81,30.06,10.0,South,3.5,-,N/A,,Clear,170,2013-03-23 06:51:00
3:51 AM,21.9,19.0,89,30.05,8.0,Calm,Calm,-,N/A,,Clear,0,2013-03-23 07:51:00
4:51 AM,23.0,19.9,88,30.04,8.0,Calm,Calm,-,N/A,,Clear,0,2013-03-23 08:51:00
5:51 AM,21.0,19.0,92,30.04,9.0,South,3.5,-,N/A,,Clear,190,2013-03-23 09:51:00
6:51 AM,21.9,19.0,89,30.05,8.0,South,3.5,-,N/A,,Clear,190,2013-03-23 10:51:00
7:51 AM,21.9,19.0,89,30.07,7.0,Calm,Calm,-,N/A,,Scattered Clouds,0,2013-03-23 11:51:00
8:51 AM,26.1,23.0,88,30.09,6.0,South,3.5,-,N/A,,Mostly Cloudy,170,2013-03-23 12:51:00
9:51 AM,30.0,26.1,85,30.10,6.0,SW,3.5,-,N/A,,Mostly Cloudy,230,2013-03-23 13:51:00
10:51 AM,33.8,26.6,75,30.08,10.0,Calm,Calm,-,N/A,,Mostly Cloudy,0,2013-03-23 14:51:00
11:25 AM,35.1,24.1,64,30.09,10.0,North,-9999.0,-,N/A,,Mostly Cloudy,0,2013-03-23 15:25:00
11:51 AM,35.1,25.0,67,30.12,10.0,North,8.1,-,N/A,,Mostly Cloudy,360,2013-03-23 15:51:00
12:09 PM,36.0,25.0,64,30.09,10.0,Variable,3.5,-,N/A,,Mostly Cloudy,0,2013-03-23 16:09:00
12:25 PM,35.1,26.1,70,30.09,10.0,NNW,9.2,-,N/A,,Mostly Cloudy,340,2013-03-23 16:25:00
12:34 PM,37.0,28.0,70,30.08,10.0,North,8.1,-,N/A,,Mostly Cloudy,350,2013-03-23 16:34:00
12:42 PM,36.0,28.0,73,30.08,10.0,North,6.9,-,N/A,,Mostly Cloudy,350,2013-03-23 16:42:00
12:51 PM,35.1,27.0,72,30.11,10.0,North,9.2,-,N/A,,Mostly Cloudy,350,2013-03-23 16:51:00
12:58 PM,34.0,26.1,73,30.08,10.0,North,5.8,-,N/A,,Partly Cloudy,350,2013-03-23 16:58:00
1:51 PM,36.0,27.0,70,30.11,10.0,North,8.1,-,N/A,,Mostly Cloudy,350,2013-03-23 17:51:00
2:51 PM,37.9,26.1,62,30.11,10.0,Variable,6.9,-,N/A,,Mostly Cloudy,0,2013-03-23 18:51:00
2:58 PM,37.9,26.1,62,30.08,10.0,North,9.2,-,N/A,,Partly Cloudy,360,2013-03-23 18:58:00
3:51 PM,37.0,25.0,62,30.10,10.0,North,10.4,-,N/A,,Partly Cloudy,360,2013-03-23 19:51:00
4:51 PM,36.0,23.0,59,30.10,10.0,NNE,10.4,-,N/A,,Partly Cloudy,20,2013-03-23 20:51:00
5:51 PM,35.1,23.0,61,30.11,10.0,NNW,10.4,-,N/A,,Clear,340,2013-03-23 21:51:00
6:51 PM,33.1,21.9,64,30.09,10.0,NNE,11.5,-,N/A,,Clear,30,2013-03-23 22:51:00
7:51 PM,30.9,21.9,69,30.10,10.0,NNE,8.1,-,N/A,,Clear,30,2013-03-23 23:51:00
8:51 PM,30.0,21.9,72,30.11,10.0,NE,5.8,-,N/A,,Clear,40,2013-03-24 00:51:00
9:51 PM,30.0,21.9,72,30.12,10.0,NNE,4.6,-,N/A,,Clear,30,2013-03-24 01:51:00
10:51 PM,28.9,21.9,75,30.11,10.0,NE,5.8,-,N/A,,Clear,40,2013-03-24 02:51:00
11:51 PM,30.0,21.9,72,30.07,10.0,ENE,8.1,-,N/A,,Clear,60,2013-03-24 03:51:00